Ct-Aws, South Africa

6:20 AM SAST on February 10, 2016 (GMT +0200)
Cape Town International

Weather History for FACT - October, 2013

Change the Weather History Date:

Friday, October 11, 2013

  Actual Average Record
Temperature  
Mean Temperature 58 °F -  
Max Temperature 66 °F 69 °F 84 °F (2003)
Min Temperature 50 °F 51 °F 39 °F (2000)
Degree Days  
Heating Degree Days 7    
Growing Degree Days 8 (Base 50)    
Moisture  
Dew Point 52 °F    
Average Humidity 76    
Maximum Humidity 94    
Minimum Humidity 52    
Precipitation  
Precipitation 0.01 in - - ()
Sea Level Pressure  
Sea Level Pressure 29.99 in    
Wind  
Wind Speed 10 mph ()    
Max Wind Speed 29 mph    
Max Gust Speed -    
Visibility 7.0 miles    
Events Rain    
Averages and records for this station are not official NWS values.
T = Trace of Precipitation, MM = Missing Value Source: Averaged Metar Reports

Daily Weather History Graph

Daily Weather History Graph

Search for Another Location

Airport or City:

Trip Planner

Search our weather history database for the weather conditions in past years. The results will help you decide how hot, cold, wet, or windy it might be!

Date:

Astronomy

Oct. 11, 2013 Rise Set
Actual Time 6:09 AM SAST 6:56 PM SAST
Civil Twilight 5:43 AM SAST 7:21 PM SAST
Nautical Twilight 5:13 AM SAST 7:51 PM SAST
Astronomical Twilight 4:43 AM SAST 8:22 PM SAST
Moon 11:19 AM SAST (10/11) 12:37 AM SAST (10/11)
Length of Visible Light 13h 37m
Length of Day
12h 46m
Waxing Crescent, 44% of the Moon is Illuminated
Oct 11
Waxing Crescent
Oct 12
First Quarter
Oct 19
Full
Oct 27
Last Quarter
Nov 3
New

Hourly Weather History & Observations

Time (SAST) Temp. Dew Point Humidity Pressure Visibility Wind Dir Wind Speed Gust Speed Precip Events Conditions
12:00 AM 55.4 °F 50.0 °F 82% 29.98 in - SE 2.3 mph - N/A   Clear
1:00 AM 51.8 °F 48.2 °F 88% 29.98 in 5.0 mi Calm Calm - N/A   Partly Cloudy
2:00 AM 53 °F 48 °F 77% 30.00 in 3 mi NNW 2.3 mph - -   Mist
2:00 AM 51.8 °F 44.6 °F 76% 29.98 in 2.8 mi NNW 2.3 mph - N/A   Partly Cloudy
3:00 AM 53.6 °F 51.8 °F 94% 29.98 in 3.7 mi NNE 3.5 mph - N/A   Mostly Cloudy
4:00 AM 57.2 °F 53.6 °F 88% 29.98 in 5.0 mi North 5.8 mph - N/A   Mostly Cloudy
5:00 AM 56 °F 53 °F 84% 29.98 in 4 mi North 6.9 mph - -   Mist
5:00 AM 57.2 °F 51.8 °F 82% 29.98 in 4.3 mi North 8.1 mph - N/A   Mostly Cloudy
6:00 AM 57.2 °F 53.6 °F 88% 29.98 in 6.2 mi NNW 10.4 mph - N/A   Mostly Cloudy
7:00 AM 57.2 °F 51.8 °F 82% 29.98 in 6.2 mi NNW 10.4 mph - N/A   Mostly Cloudy
8:00 AM 58 °F 51 °F 72% 30.01 in 9 mi NW 15.0 mph - -   Haze
8:00 AM 59.0 °F 51.8 °F 77% 30.01 in 6.2 mi NNW 13.8 mph - N/A   Mostly Cloudy
9:00 AM 60.8 °F 51.8 °F 72% 30.01 in 6.2 mi NW 15.0 mph - N/A   Mostly Cloudy
10:00 AM 60.8 °F 51.8 °F 72% 30.01 in 6.2 mi NW 17.3 mph - N/A   Mostly Cloudy
11:00 AM 63 °F 52 °F 59% 30.01 in 19 mi NW 20.7 mph - -   Mostly Cloudy
11:00 AM 62.6 °F 51.8 °F 68% 30.01 in 6.2 mi NW 18.4 mph - N/A   Mostly Cloudy
12:00 PM 62.6 °F 51.8 °F 68% 30.01 in 6.2 mi NW 18.4 mph - N/A   Mostly Cloudy
1:00 PM 64.4 °F 51.8 °F 64% 29.98 in 6.2 mi NW 19.6 mph - N/A   Mostly Cloudy
2:00 PM 65 °F 51 °F 52% 29.99 in 25 mi NW 20.7 mph - -   Scattered Clouds
2:00 PM 64.4 °F 51.8 °F 64% 29.98 in 6.2 mi NW 18.4 mph - N/A   Partly Cloudy
3:00 PM 64.4 °F 51.8 °F 64% 29.98 in 6.2 mi NNW 19.6 mph - N/A   Partly Cloudy
4:00 PM 64.4 °F 51.8 °F 64% 29.95 in 6.2 mi NW 18.4 mph - N/A   Partly Cloudy
5:00 PM 62 °F 52 °F 62% 29.96 in 19 mi NW 28.8 mph - -   Partly Cloudy
5:00 PM 62.6 °F 51.8 °F 68% 29.95 in 6.2 mi WNW 13.8 mph - N/A   Scattered Clouds
6:00 PM 60.8 °F 53.6 °F 77% 29.98 in 6.2 mi NNW 17.3 mph - N/A   Mostly Cloudy
7:00 PM 59.0 °F 55.4 °F 88% 29.98 in - NW 12.7 mph - N/A   Light Drizzle
8:00 PM 59 °F 55 °F 81% 30.01 in 6 mi NNW 21.9 mph - - Rain Light Rain
8:00 PM 59.0 °F 55.4 °F 88% 30.01 in 6.2 mi North 13.8 mph - N/A   Scattered Clouds
9:00 PM 59.0 °F 55.4 °F 88% 30.01 in 6.2 mi NNW 19.6 mph - N/A   Mostly Cloudy
10:00 PM 59.0 °F 53.6 °F 82% 30.04 in 6.2 mi NNW 21.9 mph - N/A   Scattered Clouds
11:00 PM 60 °F 54 °F 74% 30.04 in 16 mi NNW 17.3 mph - -   Partly Cloudy
11:00 PM 59.0 °F 53.6 °F 82% 30.04 in 6.2 mi NW 19.6 mph - N/A   Mostly Cloudy